Home   Weather   Baton Rouge   Past weeks

Flag for USA Past Weather in Baton Rouge, Louisiana, USA — Yesterday and Last 2 Weeks

Now
53 °F

Light rain. Mostly cloudy.


Feels Like: 48 °F
Forecast: 54 / 63 °F
Wind: 17 mph from West

Location: Baton Rouge Metropolitan - Ryan Field

Current Time: Dec 6, 2016 at 6:16:29 am

Latest Report: Dec 6, 2016 at 4:53 am


Visibility: 8 mi

Pressure: 29.81 "Hg

Humidity: 96%

Dew Point: 52 °F

Location of Baton RougeLocation

Past Weather in Baton Rouge — Graph

°F

Baton Rouge Temperature Yesterday

Maximum temperature yesterday: 64 °F (at 10:53 pm)
Minimum temperature yesterday: 53 °F (at 3:02 am)
Average temperature yesterday: 57 °F

High & Low Weather Summary for the Past Weeks

 TemperatureHumidityPressure
High82 °F (Nov 29, 12:53 pm)100% (Nov 23, 9:53 pm)30.39 "Hg (Nov 23, 9:53 pm)
Low33 °F (Nov 21, 5:53 am)20% (Nov 21, 3:53 pm)29.58 "Hg (Nov 28, 2:53 pm)
Average59 °F77%30.03 "Hg
* Reported Nov 21 4:53 am — Dec 6 4:53 am, Baton Rouge, Weather by CustomWeather, © 2016

Note: Actual official high and low records may vary slightly from our data, if they occured in-between our weather recording intervals... More about our weather records

Advertising

Baton Rouge Weather History for the Previous 24 Hours

Scroll right to see more
 ConditionsComfort  
Time TempWeatherWind HumidityBarometerVisibility
4:53 am
Tue, Dec 6
53 °FLight rain. Mostly cloudy.17 mph96%29.81 "Hg8 mi
3:53 am55 °FMostly cloudy.15 mph96%29.79 "Hg10 mi
2:53 am56 °FLow clouds.12 mph93%29.77 "Hg10 mi
2:00 am57 °FLow clouds.14 mph93%29.75 "Hg10 mi
12:53 am59 °FLow clouds.17 mph93%29.72 "Hg10 mi
11:53 pm
Mon, Dec 5
62 °FFog.15 mph96%29.70 "Hg3 mi
10:53 pm64 °FLight rain. Fog.6 mph97%29.68 "Hg4 mi
9:53 pm63 °FLow clouds.5 mph97%29.67 "Hg10 mi
8:53 pm63 °FLight rain. Low clouds.7 mph97%29.66 "Hg10 mi
7:53 pm62 °FLow clouds.7 mph96%29.65 "Hg10 mi
6:53 pm61 °FLow clouds.6 mph100%29.67 "Hg10 mi
5:53 pm60 °FLow clouds.6 mph100%29.67 "Hg7 mi
4:53 pm60 °FLow clouds.9 mph96%29.68 "Hg8 mi
3:53 pm60 °FMostly cloudy.13 mph96%29.70 "Hg10 mi
2:53 pm60 °FLight rain. Fog.9 mph96%29.70 "Hg5 mi
1:53 pm58 °FLight rain. Fog.9 mph97%29.72 "Hg6 mi
1:03 pm57 °FLight rain. Fog.7 mph96%29.76 "Hg5 mi
12:00 pm55 °FRain. Fog.9 mph100%29.79 "Hg3 mi
10:53 am54 °FHeavy rain. Fog.7 mph100%29.84 "Hg3 mi
9:53 am54 °FRain. Fog.12 mph97%29.86 "Hg4 mi
8:53 am54 °FRain. Fog.9 mph97%29.88 "Hg5 mi
7:53 am54 °FRain. Fog.6 mph100%29.88 "Hg3 mi
6:53 am54 °FLight rain. Fog.5 mph97%29.87 "Hg3 mi
Weather by CustomWeather, © 2016

See weather overviewHow to use our weather pages